User: anonymous   Login
Location: Unspecified
(49.2170°N, 0.0000°E)
Time: 19:53:27
(UTC+00:00)
Language:

Transit 2A - Orbit

View from above orbital plane
View from above orbital plane
View from above satellite
View from above satellite

Ground track
Ground track

The orbit data is extracted from the following two-line orbital elements,

1 00045U 60007A   21134.66513920 -.00000055  00000-0  13091-4 0  9994
2 00045  66.6950 228.0535 0247983  74.0265 288.8001 14.33719168113314
Epoch (UTC): 14 May 2021 15:57:48
Eccentricity: 0.0247983
inclination: 66.6950°
perigee height: 602 km
apogee height: 957 km
right ascension of ascending node: 228.0535°
argument of perigee: 74.0265°
revolutions per day: 14.33719168
mean anomaly at epoch: 288.8001°
orbit number at epoch: 11331

The dashed part of the orbit path shows where the satellite is in the earth's shadow,  

DLR